TimeEST,TemperatureF,Dew PointF,Humidity,Sea Level PressureIn,VisibilityMPH,Wind Direction,Wind SpeedMPH,Gust SpeedMPH,PrecipitationIn,Events,Conditions,WindDirDegrees,DateUTC
12:54 AM,32.0,25.0,75,29.94,10.0,North,3.5,-,N/A,,Clear,360,2013-02-13 05:54:00
1:54 AM,32.0,25.0,75,29.92,10.0,North,5.8,-,N/A,,Clear,360,2013-02-13 06:54:00
2:54 AM,30.9,27.0,85,29.92,9.0,North,9.2,-,N/A,,Clear,360,2013-02-13 07:54:00
3:54 AM,30.0,27.0,88,29.91,6.0,NNE,6.9,-,N/A,,Partly Cloudy,20,2013-02-13 08:54:00
4:54 AM,30.0,27.0,88,29.89,5.0,NNE,4.6,-,N/A,,Scattered Clouds,20,2013-02-13 09:54:00
5:54 AM,28.9,27.0,92,29.87,4.0,NNE,9.2,-,N/A,,Overcast,20,2013-02-13 10:54:00
6:24 AM,28.4,26.6,93,29.80,4.0,NNE,8.1,-,N/A,,Overcast,30,2013-02-13 11:24:00
6:54 AM,28.9,27.0,92,29.84,4.0,NNE,9.2,-,N/A,,Overcast,30,2013-02-13 11:54:00
7:18 AM,28.4,26.6,93,29.76,4.0,NNE,8.1,-,N/A,,Overcast,20,2013-02-13 12:18:00
7:32 AM,28.4,26.6,93,29.76,4.0,NNE,6.9,-,N/A,,Overcast,30,2013-02-13 12:32:00
7:54 AM,28.9,27.0,92,29.84,2.5,NNE,8.1,-,N/A,,Overcast,30,2013-02-13 12:54:00
8:54 AM,28.9,27.0,92,29.86,2.5,NNE,5.8,-,N/A,,Overcast,20,2013-02-13 13:54:00
9:20 AM,30.2,28.4,93,29.80,3.0,North,6.9,-,N/A,,Overcast,350,2013-02-13 14:20:00
9:54 AM,30.0,27.0,88,29.89,3.0,NNW,4.6,-,N/A,,Overcast,340,2013-02-13 14:54:00
10:43 AM,30.2,26.6,86,29.82,2.5,NW,6.9,-,0.00,Snow,Light Snow,320,2013-02-13 15:43:00
10:54 AM,30.0,27.0,88,29.89,1.8,NW,5.8,-,0.00,Snow,Light Snow,320,2013-02-13 15:54:00
11:14 AM,30.2,26.6,86,29.81,0.5,NW,5.8,-,0.00,Fog-Snow,Snow,320,2013-02-13 16:14:00
11:21 AM,28.4,28.4,100,29.80,0.2,NNW,4.6,-,0.02,Fog-Snow,Heavy Snow,340,2013-02-13 16:21:00
11:48 AM,28.4,28.4,100,29.79,0.5,NNW,8.1,-,0.06,Fog-Snow,Snow,340,2013-02-13 16:48:00
11:54 AM,30.0,28.0,92,29.87,1.0,NNW,8.1,-,0.06,Snow,Light Snow,340,2013-02-13 16:54:00
12:06 PM,30.2,28.4,93,29.79,0.8,NNW,9.2,-,0.00,Snow,Light Snow,340,2013-02-13 17:06:00
12:32 PM,30.2,28.4,93,29.78,0.8,NNW,6.9,-,0.01,Snow,Light Snow,340,2013-02-13 17:32:00
12:54 PM,30.0,28.0,92,29.85,0.5,NW,5.8,-,0.02,Fog-Snow,Snow,310,2013-02-13 17:54:00
1:02 PM,30.2,28.4,93,29.76,0.5,NW,4.6,-,0.00,Fog-Snow,Snow,310,2013-02-13 18:02:00
1:18 PM,30.2,28.4,93,29.76,0.2,Calm,Calm,-,0.02,Fog-Snow,Heavy Snow,0,2013-02-13 18:18:00
1:27 PM,30.2,28.4,93,29.76,0.2,NW,3.5,-,0.03,Fog-Snow,Snow,320,2013-02-13 18:27:00
1:46 PM,28.4,26.6,93,29.75,0.5,NW,4.6,-,0.05,Fog-Snow,Snow,320,2013-02-13 18:46:00
1:54 PM,30.0,28.0,92,29.83,0.5,NW,5.8,-,0.05,Fog-Snow,Snow,320,2013-02-13 18:54:00
2:09 PM,30.2,28.4,93,29.75,1.2,WNW,4.6,-,0.00,Snow,Light Snow,290,2013-02-13 19:09:00
2:17 PM,30.2,26.6,86,29.75,2.0,NW,5.8,-,0.00,Snow,Light Snow,310,2013-02-13 19:17:00
2:28 PM,30.2,28.4,93,29.75,3.0,NW,5.8,-,0.00,,Overcast,310,2013-02-13 19:28:00
2:54 PM,30.0,27.0,88,29.84,4.0,NW,8.1,-,0.00,,Overcast,310,2013-02-13 19:54:00
3:35 PM,30.2,28.4,93,29.77,4.0,West,5.8,-,N/A,,Overcast,280,2013-02-13 20:35:00
3:54 PM,32.0,28.0,85,29.85,4.0,West,6.9,-,N/A,,Overcast,270,2013-02-13 20:54:00
4:54 PM,32.0,27.0,82,29.86,4.0,West,6.9,-,N/A,,Haze,260,2013-02-13 21:54:00
5:12 PM,32.0,28.4,87,29.78,4.0,WSW,5.8,-,N/A,,Scattered Clouds,250,2013-02-13 22:12:00
5:54 PM,30.0,26.1,85,29.88,4.0,WSW,5.8,-,N/A,,Clear,240,2013-02-13 22:54:00
6:54 PM,26.1,24.1,92,29.91,4.0,SSW,5.8,-,N/A,,Clear,210,2013-02-13 23:54:00
7:54 PM,25.0,24.1,96,29.94,3.0,SSW,5.8,-,N/A,,Clear,210,2013-02-14 00:54:00
8:27 PM,24.8,24.8,100,29.86,2.5,SSW,4.6,-,N/A,,Clear,200,2013-02-14 01:27:00
8:54 PM,25.0,24.1,96,29.95,1.8,SSW,4.6,-,N/A,,Clear,210,2013-02-14 01:54:00
9:38 PM,24.8,24.8,100,29.87,3.0,SSW,6.9,-,N/A,,Clear,210,2013-02-14 02:38:00
9:54 PM,24.1,24.1,100,29.96,3.0,SW,6.9,-,N/A,,Clear,220,2013-02-14 02:54:00
10:54 PM,25.0,23.0,92,29.96,3.0,SSW,5.8,-,N/A,,Clear,210,2013-02-14 03:54:00
11:54 PM,24.1,24.1,100,29.96,4.0,SSW,5.8,-,N/A,,Clear,200,2013-02-14 04:54:00